This demonstration page uses our WeatherBlox Daily Observations layout. Learn more.

Left ArrowRight Arrow

39.01783, -85.05884

Hourly Observations for October 30, 2018

Temp ( °F °C ) Dew Point ( °F °C ) Humidity (%) Winds ( mph kmh ) Pressure ( in mb ) Visibility ( mi km ) Precip ( " mm )
12:52 am 00:52 Mostly Clear 40 4.4 39 3.9 97 97 SSE 3 6 30.10 1019 10 16 N/A
1:52 am 01:52 Partly Cloudy 39 3.9 38 3.3 96 96 N N/A 30.10 1019 10 16 N/A
2:52 am 02:52 Partly Cloudy 43 6.1 37 2.8 80 80 N N/A 30.11 1020 10 16 N/A
3:52 am 03:52 Mostly Clear 41 5 38 3.3 89 89 N N/A 30.11 1020 10 16 N/A
4:52 am 04:52 Clear 38 3.3 37 2.8 97 97 S 3 6 30.11 1020 10 16 N/A
5:52 am 05:52 Partly Cloudy 42 5.6 37 2.8 82 82 SSE 3 6 30.11 1020 10 16 N/A
6:52 am 06:52 Partly Cloudy 35 1.7 35 1.7 100 100 S 6 9 30.13 1020 10 16 N/A
7:52 am 07:52 Mostly Cloudy 40 4.4 37 2.8 89 89 S 6 9 30.13 1020 10 16 N/A
8:52 am 08:52 Mostly Cloudy 39 3.9 37 2.8 93 93 S 7 11 30.14 1021 10 16 N/A
9:52 am 09:52 Mostly Cloudy 51 10.6 43 6.1 74 74 S 9 15 30.14 1021 10 16 N/A
10:52 am 10:52 Cloudy 54 12.2 42 5.6 64 64 S 8 13 30.14 1021 10 16 N/A
11:52 am 11:52 Cloudy 59 15 43 6.1 56 56 S 12 19 30.12 1020 10 16 N/A
12:52 pm 12:52 Mostly Cloudy 62 16.7 43 6.1 50 50 S 12 19 30.09 1019 10 16 N/A
1:52 pm 13:52 Mostly Cloudy 66 18.9 43 6.1 43 43 S 15 24 30.06 1018 10 16 N/A
2:52 pm 14:52 Mostly Cloudy 67 19.4 41 5 39 39 S 18 30 30.03 1017 10 16 N/A
3:52 pm 15:52 Mostly Cloudy 68 20 42 5.6 39 39 SSE 16 26 30.01 1016 10 16 N/A
4:52 pm 16:52 Mostly Cloudy 67 19.4 44 6.7 44 44 SSE 14 22 30.00 1016 10 16 N/A
5:52 pm 17:52 Mostly Cloudy 65 18.3 44 6.7 47 47 S 14 22 29.99 1016 10 16 N/A
6:52 pm 18:52 Mostly Cloudy 58 14.4 44 6.7 60 60 S 9 15 30.00 1016 10 16 N/A
7:52 pm 19:52 Mostly Cloudy 56 13.3 43 6.1 62 62 SSE 9 15 29.99 1016 10 16 N/A
8:52 pm 20:52 Mostly Cloudy 56 13.3 43 6.1 62 62 S 9 15 29.99 1016 10 16 N/A
9:52 pm 21:52 Mostly Cloudy 56 13.3 44 6.7 65 65 S 8 13 29.98 1015 10 16 N/A
10:52 pm 22:52 Cloudy 58 14.4 46 7.8 65 65 S 10 17 29.96 1015 10 16 N/A
11:52 pm 23:52 Cloudy 60 15.6 48 8.9 65 65 S 12 19 29.95 1014 10 16 N/A

Powered by AerisWeather